• In Austria
  • List of Countries
  • For 7 days
  • Water Temperature
  • Satellite Maps
  • Weather Map
  • News
  • Weather Widgets
  • user-avatar
    Login

    Hourly Weather Biskira

    Today, 20 October, Friday

    Time Temperature Precipitation Wind Pressure Humidity
    00:00 +20°C° 0 mm 2 mps 751 mmHg 68%
    01:00 +20°C° 1.4 mm 2 mps 751 mmHg 71%
    02:00 +20°C° 1.4 mm 2 mps 751 mmHg 73%
    03:00 +19°C° 1.4 mm 2 mps 751 mmHg 75%
    04:00 +19°C° 0.2 mm 2 mps 751 mmHg 74%
    05:00 +19°C° 0.2 mm 2 mps 751 mmHg 73%
    06:00 +19°C° 0.2 mm 2 mps 751 mmHg 72%
    07:00 +20°C° 0.1 mm 3 mps 751 mmHg 66%
    08:00 +21°C° 0.1 mm 4 mps 751 mmHg 60%
    09:00 +21°C° 0.1 mm 5 mps 752 mmHg 54%
    10:00 +22°C° 0.5 mm 5 mps 752 mmHg 51%
    11:00 +23°C° 0.5 mm 5 mps 752 mmHg 49%
    12:00 +23°C° 0.5 mm 5 mps 752 mmHg 46%
    13:00 +23°C° 0.4 mm 5 mps 752 mmHg 47%
    14:00 +23°C° 0.4 mm 5 mps 752 mmHg 48%
    15:00 +23°C° 0.4 mm 5 mps 752 mmHg 49%
    16:00 +23°C° 0 mm 5 mps 752 mmHg 50%
    17:00 +22°C° 0 mm 4 mps 753 mmHg 51%
    18:00 +22°C° 0 mm 4 mps 753 mmHg 52%
    19:00 +22°C° 0 mm 4 mps 754 mmHg 54%
    20:00 +21°C° 0 mm 4 mps 754 mmHg 56%
    21:00 +21°C° 0 mm 4 mps 755 mmHg 57%
    22:00 +21°C° 0 mm 4 mps 755 mmHg 58%
    23:00 +21°C° 0 mm 4 mps 755 mmHg 60%

    Tomorrow, 21 October, Saturday

    Time Temperature Precipitation Wind Pressure Humidity
    00:00 +20°C° 0 mm 4 mps 755 mmHg 61%
    01:00 +20°C° 0 mm 4 mps 755 mmHg 62%
    02:00 +20°C° 0 mm 4 mps 755 mmHg 63%
    03:00 +20°C° 0 mm 4 mps 755 mmHg 64%
    04:00 +20°C° 0 mm 4 mps 755 mmHg 64%
    05:00 +19°C° 0 mm 4 mps 755 mmHg 65%
    06:00 +19°C° 0 mm 4 mps 756 mmHg 65%
    07:00 +21°C° 0 mm 4 mps 756 mmHg 61%
    08:00 +22°C° 0 mm 3 mps 757 mmHg 56%
    09:00 +24°C° 0 mm 3 mps 757 mmHg 51%
    10:00 +25°C° 0 mm 3 mps 757 mmHg 48%
    11:00 +26°C° 0 mm 2 mps 757 mmHg 45%
    12:00 +27°C° 0 mm 2 mps 757 mmHg 42%
    13:00 +27°C° 0 mm 2 mps 756 mmHg 41%
    14:00 +27°C° 0 mm 2 mps 756 mmHg 40%
    15:00 +28°C° 0 mm 2 mps 756 mmHg 40%
    16:00 +27°C° 0 mm 2 mps 756 mmHg 42%
    17:00 +26°C° 0 mm 2 mps 756 mmHg 44%
    18:00 +26°C° 0 mm 2 mps 756 mmHg 47%
    19:00 +25°C° 0 mm 1 mps 757 mmHg 49%
    20:00 +25°C° 0 mm 1 mps 757 mmHg 50%
    21:00 +24°C° 0 mm 1 mps 758 mmHg 52%
    22:00 +24°C° 0 mm 1 mps 758 mmHg 53%
    23:00 +24°C° 0 mm 1 mps 757 mmHg 53%

    Day after tomorrow, 22 October, Sunday

    Time Temperature Precipitation Wind Pressure Humidity
    00:00 +24°C° 0 mm 1 mps 757 mmHg 54%
    01:00 +23°C° 0 mm 1 mps 757 mmHg 55%
    02:00 +23°C° 0 mm 1 mps 757 mmHg 57%
    03:00 +23°C° 0 mm 1 mps 757 mmHg 58%
    04:00 +22°C° 0 mm 1 mps 757 mmHg 60%
    05:00 +22°C° 0 mm 1 mps 757 mmHg 62%
    06:00 +22°C° 0 mm 1 mps 757 mmHg 64%
    07:00 +23°C° 0 mm 1 mps 757 mmHg 60%
    08:00 +24°C° 0 mm 1 mps 758 mmHg 56%
    09:00 +25°C° 0 mm 1 mps 758 mmHg 52%
    10:00 +26°C° 0 mm 1 mps 758 mmHg 49%
    11:00 +27°C° 0 mm 1 mps 757 mmHg 46%
    12:00 +27°C° 0 mm 1 mps 757 mmHg 44%
    13:00 +28°C° 0 mm 1 mps 756 mmHg 42%
    14:00 +28°C° 0 mm 1 mps 756 mmHg 40%
    15:00 +28°C° 0 mm 2 mps 755 mmHg 39%
    16:00 +28°C° 0 mm 2 mps 755 mmHg 40%
    17:00 +27°C° 0 mm 2 mps 756 mmHg 42%
    18:00 +27°C° 0 mm 2 mps 756 mmHg 44%
    19:00 +26°C° 0 mm 2 mps 756 mmHg 45%
    20:00 +26°C° 0 mm 2 mps 756 mmHg 47%
    21:00 +25°C° 0 mm 2 mps 757 mmHg 48%
    22:00 +25°C° 0 mm 2 mps 757 mmHg 50%
    23:00 +25°C° 0 mm 2 mps 757 mmHg 51%

    23 October, Monday

    Time Temperature Precipitation Wind Pressure Humidity
    00:00 +24°C° 0 mm 2 mps 756 mmHg 53%
    01:00 +24°C° 0 mm 2 mps 756 mmHg 55%
    02:00 +24°C° 0 mm 2 mps 756 mmHg 57%
    03:00 +23°C° 0 mm 2 mps 756 mmHg 60%
    04:00 +22°C° 0 mm 3 mps 756 mmHg 61%
    05:00 +22°C° 0 mm 3 mps 756 mmHg 62%
    06:00 +21°C° 0 mm 3 mps 756 mmHg 63%
    07:00 +22°C° 0 mm 3 mps 756 mmHg 58%
    08:00 +24°C° 0 mm 3 mps 757 mmHg 53%
    09:00 +26°C° 0 mm 3 mps 757 mmHg 48%
    10:00 +26°C° 0 mm 3 mps 757 mmHg 45%
    11:00 +27°C° 0 mm 3 mps 756 mmHg 41%
    12:00 +28°C° 0 mm 3 mps 756 mmHg 38%
    13:00 +28°C° 0 mm 3 mps 756 mmHg 37%
    14:00 +28°C° 0 mm 3 mps 756 mmHg 36%
    15:00 +28°C° 0 mm 3 mps 755 mmHg 35%
    16:00 +28°C° 0 mm 3 mps 755 mmHg 38%
    17:00 +27°C° 0 mm 3 mps 756 mmHg 41%
    18:00 +26°C° 0 mm 3 mps 756 mmHg 43%
    19:00 +26°C° 0 mm 3 mps 756 mmHg 45%
    20:00 +25°C° 0 mm 3 mps 757 mmHg 47%
    21:00 +24°C° 0 mm 3 mps 757 mmHg 49%
    22:00 +24°C° 0 mm 3 mps 757 mmHg 50%
    23:00 +22°C° 0 mm 3 mps 757 mmHg 50%

    24 October, Tuesday

    Time Temperature Precipitation Wind Pressure Humidity
    00:00 +21°C° 0 mm 4 mps 757 mmHg 50%
    01:00 +21°C° 0 mm 3 mps 757 mmHg 50%
    02:00 +21°C° 0 mm 3 mps 757 mmHg 49%
    03:00 +20°C° 0 mm 3 mps 757 mmHg 49%
    04:00 +20°C° 0 mm 3 mps 757 mmHg 49%
    05:00 +19°C° 0 mm 2 mps 757 mmHg 50%
    06:00 +19°C° 0 mm 2 mps 757 mmHg 51%
    07:00 +20°C° 0 mm 2 mps 757 mmHg 47%
    08:00 +21°C° 0 mm 2 mps 758 mmHg 43%
    09:00 +24°C° 0 mm 2 mps 758 mmHg 39%
    10:00 +24°C° 0 mm 2 mps 757 mmHg 37%
    11:00 +25°C° 0 mm 2 mps 757 mmHg 34%
    12:00 +26°C° 0 mm 2 mps 756 mmHg 32%
    13:00 +26°C° 0 mm 2 mps 756 mmHg 30%
    14:00 +27°C° 0 mm 2 mps 756 mmHg 28%
    15:00 +27°C° 0 mm 2 mps 755 mmHg 27%
    16:00 +27°C° 0 mm 2 mps 755 mmHg 29%
    17:00 +26°C° 0 mm 2 mps 755 mmHg 31%
    18:00 +25°C° 0 mm 1 mps 756 mmHg 33%
    19:00 +25°C° 0 mm 1 mps 756 mmHg 34%
    20:00 +24°C° 0 mm 1 mps 756 mmHg 34%
    21:00 +24°C° 0 mm 1 mps 756 mmHg 35%
    22:00 +24°C° 0 mm 1 mps 756 mmHg 35%
    23:00 +23°C° 0 mm 1 mps 756 mmHg 35%

    25 October, Wednesday

    Time Temperature Precipitation Wind Pressure Humidity
    00:00 +23°C° 0 mm 1 mps 756 mmHg 35%
    01:00 +23°C° 0 mm 1 mps 756 mmHg 35%
    02:00 +22°C° 0 mm 1 mps 755 mmHg 36%
    03:00 +22°C° 0 mm 1 mps 755 mmHg 36%
    04:00 +22°C° 0 mm 1 mps 755 mmHg 36%
    05:00 +21°C° 0 mm 1 mps 755 mmHg 37%
    06:00 +21°C° 0 mm 1 mps 756 mmHg 37%
    07:00 +23°C° 0 mm 1 mps 756 mmHg 33%
    08:00 +25°C° 0 mm 1 mps 756 mmHg 29%
    09:00 +26°C° 0 mm 1 mps 756 mmHg 26%
    10:00 +27°C° 0 mm 1 mps 756 mmHg 25%
    11:00 +28°C° 0 mm 1 mps 756 mmHg 23%
    12:00 +28°C° 0 mm 1 mps 756 mmHg 22%
    13:00 +29°C° 0 mm 2 mps 755 mmHg 22%
    14:00 +29°C° 0 mm 2 mps 755 mmHg 22%
    15:00 +29°C° 0 mm 2 mps 755 mmHg 22%
    16:00 +28°C° 0 mm 2 mps 755 mmHg 25%
    17:00 +27°C° 0 mm 2 mps 756 mmHg 28%
    18:00 +26°C° 0 mm 1 mps 756 mmHg 32%
    19:00 +25°C° 0 mm 1 mps 756 mmHg 33%
    20:00 +25°C° 0 mm 1 mps 757 mmHg 35%
    21:00 +24°C° 0 mm 1 mps 757 mmHg 37%
    22:00 +24°C° 0 mm 1 mps 757 mmHg 39%
    23:00 +23°C° 0 mm 1 mps 757 mmHg 40%
    Show more